EW1760 Weather Reports


Display with metric or nautical units.
time (UTC)temp
F
wind
direction
speed
MPH
gust
MPH
rain 1hr
in
rain 24hr
in
rain mn
in
humidity
%
barometer
mb
20191118111703 42 360 6.0 10.0 0.00 0.00 0.00 89 1011.4
20191118110227 41 355 1.0 5.0 0.00 0.00 0.00 88 1011.4
20191118104614 41 17 1.0 7.0 0.00 0.00 0.00 89 1011.4
20191118103140 42 15 2.0 8.0 0.00 0.00 0.00 89 1011.5
20191118101621 42 360 6.0 9.0 0.00 0.00 0.00 89 1011.5
20191118100146 42 360 4.0 11.0 0.00 0.00 0.00 89 1011.6
20191118094639 42 355 7.0 12.0 0.00 0.00 0.00 90 1011.7
20191118093152 42 346 7.0 11.0 0.00 0.00 0.00 90 1011.8
20191118091613 42 355 5.0 9.0 0.00 0.00 0.00 90 1011.7
20191118090207 42 61 4.0 9.0 0.00 0.00 0.00 90 1011.5
20191118084605 42 12 2.0 9.0 0.00 0.00 0.00 90 1011.6
20191118083139 42 355 7.0 12.0 0.00 0.00 0.00 91 1012.2
20191118081630 42 355 4.0 9.0 0.00 0.00 0.00 91 1012.5
20191118080148 42 5 3.0 8.0 0.00 0.00 0.00 91 1012.3
20191118074604 42 351 2.0 8.0 0.00 0.00 0.00 90 1012.3
20191118073048 42 360 2.0 8.0 0.00 0.00 0.00 90 1012.4
20191118071604 42 38 1.0 8.0 0.00 0.00 0.00 90 1012.5
20191118070058 42 351 0.0 9.0 0.00 0.00 0.00 90 1012.6
20191118064548 42 20 1.0 8.0 0.00 0.00 0.00 90 1012.6
20191118063115 42 360 2.0 10.0 0.00 0.00 0.00 89 1012.8
20191118061539 42 19 3.0 9.0 0.00 0.00 0.00 89 1013.1
20191118060108 42 32 4.0 12.0 0.00 0.00 0.00 89 1013.4
20191118054627 42 360 4.0 11.0 0.00 0.00 0.00 88 1013.5
20191118053034 42 17 3.0 10.0 0.00 0.00 0.00 88 1013.7
20191118051533 43 30 2.0 10.0 0.00 0.00 0.00 88 1014.2
20191118050025 43 360 3.0 11.0 0.00 0.00 0.00 87 1014.1
20191118044513 43 26 1.0 10.0 0.00 0.00 0.00 86 1014.2
20191118043033 44 10 3.0 10.0 0.00 0.00 0.00 85 1014.3
20191118041521 44 5 2.0 16.0 0.00 0.00 0.00 85 1014.5
20191118040010 44 27 3.0 9.0 0.00 0.00 0.00 85 1014.7
20191118034504 44 17 3.0 8.0 0.00 0.00 0.00 84 1014.7
20191118033251 44 14 5.0 11.0 0.00 0.00 0.00 84 1014.9
20191118033003 44 355 4.0 11.0 0.00 0.00 0.00 84 1014.9
20191118031710 44 9 5.0 11.0 0.00 0.00 0.00 84 1014.9
20191118030006 44 351 2.0 7.0 0.00 0.00 0.00 84 1015.0
20191118024510 44 72 1.0 10.0 0.00 0.00 0.00 84 1015.1
20191118023008 44 19 2.0 8.0 0.00 0.00 0.00 84 1015.2
20191118021651 44 355 1.0 8.0 0.00 0.00 0.00 84 1015.5
20191118014701 44 355 2.0 10.0 0.00 0.00 0.00 84 1015.9
20191118013218 44 355 1.0 7.0 0.00 0.00 0.00 83 1016.0
20191118011815 44 19 2.0 8.0 0.00 0.00 0.00 83 1016.2
20191118004608 44 32 3.0 9.0 0.00 0.00 0.00 83 1016.7
20191118003135 44 360 3.0 8.0 0.00 0.00 0.00 83 1016.7
20191118001759 44 5 2.0 12.0 0.00 0.00 0.00 82 1016.9
20191117234628 44 5 4.0 10.0 0.00 0.00 0.00 82 1017.0
20191117233147 44 360 2.0 11.0 0.00 0.00 0.00 81 1017.0
20191117231745 44 23 3.0 8.0 0.00 0.00 0.00 82 1017.1
20191117224711 44 41 2.0 10.0 0.00 0.00 0.00 81 1017.3
20191117223108 44 25 1.0 6.0 0.00 0.00 0.00 81 1017.5
20191117221654 44 76 2.0 9.0 0.00 0.00 0.00 81 1017.6
20191117214549 44 33 4.0 12.0 0.00 0.00 0.00 79 1017.7
20191117213058 44 9 4.0 12.0 0.00 0.00 0.00 78 1017.8
20191117211606 44 360 3.0 15.0 0.00 0.00 0.00 77 1017.8
20191117204539 45 12 1.0 12.0 0.00 0.00 0.00 76 1017.9
20191117203126 45 19 3.0 12.0 0.00 0.00 0.00 75 1018.0
20191117201558 45 13 4.0 10.0 0.00 0.00 0.00 74 1018.2
20191117194551 46 344 5.0 11.0 0.00 0.00 0.00 74 1018.3
20191117193036 46 53 2.0 7.0 0.00 0.00 0.00 73 1018.3
20191117191551 45 24 3.0 10.0 0.00 0.00 0.00 73 1018.4
20191117184619 46 61 4.0 9.0 0.00 0.00 0.00 73 1018.8
20191117183052 46 355 3.0 13.0 0.00 0.00 0.00 72 1018.9
20191117181540 46 355 4.0 11.0 0.00 0.00 0.00 71 1019.0
20191117174539 45 350 4.0 11.0 0.00 0.00 0.00 71 1019.6
20191117173023 44 360 5.0 9.0 0.00 0.00 0.00 71 1019.9
20191117171533 44 355 2.0 10.0 0.00 0.00 0.00 72 1020.4
20191117164516 43 355 5.0 12.0 0.00 0.00 0.00 72 1021.0
20191117161717 42 26 4.0 10.0 0.00 0.00 0.00 72 1021.7
20191117154623 41 11 3.0 11.0 0.00 0.00 0.00 73 1022.3
20191117153224 41 344 4.0 10.0 0.00 0.00 0.00 73 1022.5
20191117151649 40 5 2.0 10.0 0.00 0.00 0.00 73 1022.8
20191117144640 40 9 3.0 14.0 0.00 0.00 0.00 74 1023.0
20191117143125 40 41 4.0 13.0 0.00 0.00 0.00 74 1022.9
20191117141652 39 9 3.0 15.0 0.00 0.00 0.00 73 1023.1
20191117134617 39 30 3.0 13.0 0.00 0.00 0.00 74 1023.1
20191117133242 39 360 3.0 12.0 0.00 0.00 0.00 74 1023.0
20191117131637 39 9 4.0 16.0 0.00 0.00 0.00 74 1022.9
20191117124623 39 53 5.0 11.0 0.00 0.00 0.00 74 1023.0
20191117123239 39 40 2.0 14.0 0.00 0.00 0.00 74 1023.0
20191117121552 39 80 3.0 12.0 0.00 0.00 0.00 74 1022.9
20191117114619 39 44 4.0 12.0 0.00 0.00 0.00 73 1023.1